RH
33 37 44 36 35 33 36 38 38 34 26 39 37 51 51 68 80 88 90 96 96 95 90 93 91 84 84 85 87 93 96 93 89 87 88 93 91 79 60 59 70 72 76 85
39 40 31 32 34 36 37 39 36 30 26 42 43 47 54 72 65 72 76 91 94 94 92 93 98 88 89 90 86 86 87 82 80 84 75 79 83 81 58 60 67 74 80 82
46 35 29 32 36 37 38 38 35 33 27 42 48 40 46 57 61 67 68 75 85 92 94 91 95 91 96 93 97 82 84 76 71 65 62 66 77 74 71 62 68 71 83 82
40 30 31 37 34 34 40 31 31 33 37 41 36 50 36 54 64 68 64 73 85 89 85 86 91 96 97 96 96 89 85 81 75 70 65 69 64 67 65 68 65 70 81 88
50 40 36 35 32 32 36 34 35 36 39 44 42 45 37 57 64 62 64 62 69 83 84 84 84 86 89 90 94 88 83 80 75 79 76 79 79 79 79 76 77 82 82 91
38 34 33 34 30 31 28 35 39 48 49 61 43 46 52 51 47 52 49 57 61 76 82 78 73 78 85 88 90 89 84 80 74 77 80 82 78 78 84 90 85 82 82 87
34 36 34 31 38 36 36 44 56 57 67 67 47 64 55 37 40 41 50 51 55 61 80 79 77 77 79 85 83 85 84 80 75 76 76 79 78 81 85 86 85 84 84 87
41 50 32 31 33 37 39 41 62 68 76 53 62 63 43 36 32 37 42 47 46 52 70 77 73 71 72 75 75 75 78 78 74 74 74 73 75 78 82 79 83 84 82 80
51 44 31 29 29 30 39 44 36 69 88 89 65 53 40 36 35 35 34 51 52 44 51 70 71 67 68 69 72 69 68 70 69 70 69 69 68 75 76 80 83 80 83 86
42 52 36 31 30 31 30 36 53 70 75 81 63 70 52 39 35 28 27 46 52 47 44 48 65 68 65 69 70 68 63 63 63 65 66 65 68 70 77 77 85 89 84 93
32 45 42 35 41 37 38 43 50 53 67 66 71 58 53 46 40 33 31 29 42 53 49 46 50 62 64 70 73 71 64 67 70 67 65 64 68 72 78 81 81 88 94 96
41 49 50 36 30 33 33 37 44 58 62 74 80 51 37 38 38 36 31 30 28 43 47 47 50 54 62 66 71 70 69 65 63 68 72 72 71 73 80 86 88 89 91 95
62 66 63 44 39 37 36 35 39 52 66 64 72 58 37 40 38 33 34 30 27 33 41 49 49 55 57 62 66 66 68 66 66 64 68 74 77 79 80 87 87 90 91 95
66 74 72 71 54 42 51 36 37 40 64 60 56 46 39 36 37 34 35 31 30 30 31 48 50 47 52 57 61 62 66 69 69 67 70 73 76 80 82 84 93 93 93 94
77 93 85 83 68 53 37 36 39 40 44 50 44 49 37 37 36 35 31 34 34 34 30 43 58 55 50 56 59 58 60 63 68 71 72 74 76 81 90 94 93 90 94 95
84 88 95 83 66 51 46 35 31 31 44 43 38 43 36 34 35 39 34 34 35 34 34 28 42 52 57 58 59 60 61 65 67 70 72 74 80 93 95 94 93 98 98 97
90 92 96 94 83 87 68 48 37 36 37 39 49 41 35 38 38 38 34 35 33 33 32 33 34 48 53 54 56 59 61 72 80 76 76 82 90 92 94 97 99 98 99 98
92 89 95 99 87 98 62 42 34 37 34 35 33 33 33 35 32 33 34 36 37 34 32 33 34 50 52 71 90 95 96 92 88 90 94 94 95 96 98 98 98 99 97 97
82 91 98 96 88 67 47 47 52 74 60 36 32 30 27 26 32 28 25 35 37 36 33 34 34 68 87 93 97 98 99 98 97 98 98 98 98 98 98 98 98 97 96 96
90 88 90 98 92 88 45 32 40 52 67 57 63 53 38 37 53 38 29 33 36 39 41 57 81 93 94 96 94 97 99 98 99 97 94 92 91 94 95 96 96 94 90 92
99 99 97 99 96 87 64 50 62 72 77 64 64 64 60 50 47 36 41 40 48 57 70 87 91 90 94 92 91 96 97 98 92 91 85 85 86 90 92 91 91 90 88 89
90 95 98 96 98 92 67 71 78 73 73 69 66 63 67 67 65 57 54 56 64 70 85 89 92 94 93 88 86 92 93 86 83 83 84 84 85 83 83 88 89 87 91 97
90 82 93 88 84 63 79 65 68 66 73 68 72 67 69 68 62 61 59 69 75 79 86 86 83 84 83 82 79 84 90 85 87 88 91 86 85 91 93 94 96 97 97 97
64 71 82 81 42 49 51 65 59 60 67 63 64 59 61 74 73 63 64 65 72 76 76 80 81 81 83 80 80 84 85 84 87 92 95 91 89 87 86 89 95 96 97 96
74 75 85 74 75 79 52 66 62 59 66 64 55 58 58 58 60 64 69 72 77 76 78 77 79 82 85 84 86 84 85 85 89 83 84 86 83 82 82 81 81 84 84 88
86 88 94 93 93 94 94 74 69 63 64 64 66 62 59 59 59 56 70 74 73 82 80 81 84 83 84 82 81 81 80 77 79 81 84 84 80 76 72 74 78 84 87 88
Wind_Speed
5 5 10 9 8 5 2 3 5 7 9 4 14 9 8 8 5 8 8 8 7 7 6 6 6 6 7 6 7 7 9 9 10 9 9 5 6 2 4 5 6 5 5 5
2 14 8 8 5 5 5 5 12 10 10 7 8 12 5 10 12 13 12 9 9 5 7 7 7 8 8 7 8 8 8 10 9 7 7 5 5 2 2 1 1 5 4 4
8 5 15 10 5 6 7 8 10 8 8 4 0 8 4 5 5 8 9 9 7 10 9 10 11 12 9 9 7 9 8 7 5 7 6 5 2 1 1 3 1 3 2 5
7 12 4 6 10 9 8 10 11 8 2 6 5 6 6 3 7 8 12 11 12 12 8 7 11 11 12 11 8 8 7 7 5 5 5 6 9 8 6 4 3 5 5 4
10 8 11 13 16 8 11 5 9 10 7 3 2 2 8 4 6 12 15 16 15 15 14 13 13 13 12 11 10 10 10 9 8 7 7 5 5 3 2 3 5 6 6 6
12 3 6 10 7 11 10 4 3 0 4 2 6 6 6 6 8 6 11 15 17 16 15 13 10 9 9 8 8 10 11 12 13 12 11 11 11 9 8 6 7 7 7 7
5 10 3 2 2 2 5 2 3 4 0 6 5 2 9 9 12 12 12 17 18 17 17 15 14 14 12 13 13 12 14 16 15 15 15 14 14 13 11 10 9 9 9 9
10 6 12 6 12 7 7 10 7 7 4 5 1 6 7 8 9 9 8 14 14 16 16 19 19 17 16 17 17 16 18 18 18 18 18 16 15 11 11 12 9 8 9 9
7 7 4 6 7 12 5 5 7 6 3 2 5 7 8 7 10 10 10 8 15 19 19 21 19 20 18 19 19 19 19 19 19 19 17 18 16 17 15 15 10 9 8 7
4 2 5 5 4 5 7 5 2 2 5 4 3 4 7 8 6 5 6 9 13 17 17 16 18 19 18 19 18 19 21 19 15 15 16 16 17 17 16 13 13 11 11 6
9 4 6 4 5 8 2 3 2 4 5 7 2 7 8 8 8 5 1 4 9 10 15 18 18 19 20 15 18 20 18 18 18 21 19 18 17 17 14 14 14 11 8 9
4 6 10 18 8 3 4 6 9 6 4 2 4 9 5 9 6 6 4 3 6 9 11 14 17 17 18 20 20 23 18 22 24 21 18 19 17 15 13 13 12 11 12 8
5 4 2 14 5 3 7 6 6 2 3 10 7 6 2 5 6 8 6 8 5 7 8 9 10 16 18 19 19 20 20 23 21 18 20 18 17 16 18 16 17 14 14 15
6 3 4 5 5 5 4 8 8 9 6 4 10 7 5 7 8 8 8 8 8 9 10 8 8 14 16 17 19 19 20 21 20 19 20 20 20 19 17 16 14 16 15 14
4 2 4 10 11 10 15 12 9 12 7 10 7 10 11 10 10 11 12 6 7 8 8 9 9 11 13 15 16 17 18 18 19 19 19 21 17 14 12 13 15 15 11 12
2 1 5 7 12 15 14 16 18 16 5 7 6 7 8 10 8 6 10 9 9 10 10 11 13 11 11 14 16 16 17 18 17 18 20 16 14 11 13 12 13 9 9 9
4 5 0 3 11 16 11 8 11 10 7 7 10 9 7 7 7 11 12 10 12 14 14 11 13 16 13 15 16 17 16 10 13 15 13 13 12 13 11 9 9 10 9 9
6 5 1 3 4 6 7 23 10 13 13 8 4 4 8 9 9 9 8 10 13 13 13 10 9 11 14 8 6 6 7 7 9 9 9 9 11 9 8 10 11 10 9 10
5 5 4 4 3 9 13 9 9 12 21 6 11 9 9 11 3 8 8 9 14 15 15 11 6 5 5 8 8 8 7 7 7 8 9 9 9 9 8 9 8 7 9 8
5 3 5 3 3 6 10 19 10 12 17 6 6 7 8 2 4 8 11 6 11 11 7 9 7 7 10 8 10 10 9 8 9 9 8 9 9 9 8 8 8 5 7 9
3 2 4 2 4 8 8 7 4 2 7 9 7 5 6 3 6 9 9 9 5 4 6 5 7 9 8 9 10 10 9 7 7 7 8 8 7 8 9 8 8 9 9 10
7 9 4 3 3 9 7 0 10 7 8 13 8 6 7 9 10 7 8 8 5 7 6 7 7 6 6 8 10 9 8 8 9 9 9 8 8 8 8 10 9 9 10 11
4 8 7 9 8 6 6 6 8 8 7 10 13 8 7 8 7 9 6 5 5 5 4 5 8 9 6 6 8 10 6 9 11 11 9 9 9 9 8 10 9 8 8 9
4 5 5 2 16 15 13 11 8 14 17 14 9 11 6 5 8 8 6 4 3 5 3 4 7 7 6 6 8 9 10 11 12 12 11 9 10 10 9 7 6 7 6 7
4 1 1 8 4 13 7 12 7 9 7 7 9 6 5 8 8 5 7 5 2 4 4 6 7 8 7 7 10 8 10 13 12 12 10 10 8 10 11 11 6 6 5 4
2 0 1 4 6 6 9 12 18 3 5 9 8 9 9 6 11 7 3 3 2 6 7 8 9 11 9 9 10 8 8 12 13 11 8 7 8 8 8 10 11 19 17 19
Wind_Direction
197 159 202 194 193 146 169 277 264 254 263 249 244 253 213 200 202 210 218 220 217 212 154 155 154 147 152 157 157 168 147 129 143 151 139 132 152 243 181 162 160 102 166 169
243 229 192 183 190 203 210 249 269 285 263 171 264 255 190 186 217 207 196 213 223 191 155 160 160 173 183 174 176 172 163 162 158 155 157 136 165 286 244 166 151 163 199 191
205 269 172 167 186 201 230 205 256 224 299 212 323 309 248 208 208 187 214 214 211 211 195 176 173 185 179 189 178 173 170 164 149 158 163 112 130 322 305 254 289 280 199 196
227 241 169 171 225 169 257 203 233 249 225 234 159 258 288 213 213 208 208 200 204 208 205 190 180 180 187 189 175 178 170 174 156 153 174 182 197 198 212 228 246 267 281 258
223 185 205 219 230 147 234 222 215 247 210 161 228 125 266 141 215 221 213 208 205 203 197 200 196 189 188 176 180 180 177 181 184 168 179 179 191 190 218 206 221 249 259 240
220 201 157 198 221 179 240 291 283 49 153 184 227 173 272 224 213 228 206 206 199 193 201 207 201 179 183 176 177 184 190 195 192 190 194 188 194 200 203 214 222 231 235 237
275 239 252 160 303 189 154 127 302 304 135 217 186 187 231 246 250 234 200 200 194 191 188 197 191 186 184 186 192 189 195 205 201 202 205 201 202 206 211 215 217 218 227 233
199 286 191 205 198 191 183 170 170 211 200 237 147 231 247 229 252 262 195 200 187 191 196 195 196 193 191 193 193 194 198 207 204 202 209 209 211 214 216 220 221 221 222 226
182 252 229 191 180 174 233 175 205 118 11 72 227 292 301 261 270 252 250 166 183 194 195 201 195 195 190 196 198 200 201 207 206 207 207 210 209 215 219 220 215 223 228 230
215 272 229 240 147 239 203 172 84 11 158 244 252 243 235 286 252 245 212 200 196 199 198 201 200 198 197 199 200 202 208 208 209 212 214 218 217 221 221 221 219 207 224 205
189 162 262 354 193 194 161 206 168 153 153 194 218 253 215 231 249 224 184 235 206 199 201 199 202 199 200 193 200 207 206 201 209 215 217 218 221 224 223 226 225 211 196 202
240 170 226 246 236 215 157 222 183 184 242 245 179 242 227 238 247 243 264 251 255 200 207 202 200 196 194 198 197 204 200 208 211 212 215 220 221 217 213 216 209 206 217 199
343 319 268 279 336 286 238 215 202 138 118 198 204 259 283 278 284 256 252 263 221 205 197 199 191 201 196 198 202 203 203 212 216 211 216 219 220 217 214 204 208 206 213 214
86 339 50 267 291 296 225 215 204 200 197 190 233 235 259 238 237 258 252 235 244 211 196 194 198 204 204 195 202 202 205 210 213 214 217 215 219 217 211 213 204 204 210 208
94 228 338 322 299 293 270 258 236 219 209 211 207 216 229 230 235 236 236 255 237 244 213 197 200 208 205 197 200 207 209 205 207 211 213 217 216 213 207 200 206 208 208 206
299 169 23 332 302 324 266 253 253 249 229 240 222 241 238 235 238 270 231 233 230 242 233 216 209 203 206 195 201 201 208 209 197 206 213 212 206 192 193 195 204 189 180 184
157 138 210 236 347 333 284 274 246 262 223 193 220 218 235 252 220 232 244 236 235 233 230 218 204 204 199 203 206 205 208 190 191 200 203 201 198 202 195 174 160 176 170 144
157 131 107 313 39 253 319 319 261 234 235 234 225 191 237 237 256 238 232 221 234 232 232 227 207 200 206 188 168 132 132 152 179 180 172 178 192 201 170 161 160 150 148 146
175 122 148 177 174 293 302 302 32 19 312 266 231 226 220 258 302 290 242 205 224 221 230 224 217 194 164 154 138 126 134 135 148 156 157 154 154 151 158 152 142 127 121 125
89 85 126 173 176 226 257 259 353 1 293 334 324 329 280 106 286 268 270 250 247 244 214 196 169 139 143 150 141 139 147 148 149 144 141 134 139 145 136 122 113 102 107 108
97 65 198 184 228 267 266 270 227 154 273 318 306 309 339 300 200 254 287 277 249 220 213 139 154 160 145 132 137 134 139 146 116 116 117 115 111 114 115 104 103 106 105 98
154 178 192 185 224 282 168 93 133 210 291 298 296 286 290 285 291 305 311 298 225 178 149 145 128 107 112 124 129 126 119 119 115 110 104 102 103 109 106 106 103 103 107 106
186 184 187 190 210 230 203 230 210 154 222 281 286 278 293 317 331 315 313 15 27 7 70 76 114 110 92 102 122 117 118 119 110 101 96 98 93 88 92 108 108 102 106 115
267 168 208 91 259 269 269 232 212 196 218 229 233 279 301 325 314 322 323 320 103 108 86 87 99 91 85 83 88 111 120 114 107 105 98 89 86 79 66 66 78 102 114 121
211 165 292 255 355 332 306 345 302 235 234 235 264 272 305 331 323 316 315 298 190 115 83 85 96 90 74 79 88 104 118 117 106 100 99 94 91 92 85 67 62 81 60 121
57 204 187 262 355 307 263 344 345 6 14 9 348 329 347 345 319 303 314 306 59 95 98 87 83 88 80 76 72 68 88 108 110 101 97 102 105 103 103 103 89 68 82 92